STARLINK-1415 (45691 NORAD) Tracking and Keplerian Element Data

This shows tracking and keplerian element data for the satellite.

Feedback or suggestion? Click here.




ElementValue
Catalog45691
NameSTARLINK-1415
Epoch Orbit181
Epoch Day191.91670139
Epoch Year2020
RAAN352.7343
Inclination52.9991
Eccentricity0.0001245
Argument of Perigee34.5315
Mean Anonmoly184.1111
Mean Motion15.62749808
Decay Rate-0.00020921
L11 45691U 20035AL 20191.91670139 -.00020921 00000-0 -22326-3 0 9998
L22 45691 52.9991 352.7343 0001245 34.5315 184.1111 15.62749808 1819

Live tracking and technical data element details for STARLINK-1415 (NORAD 45691). STARLINK-1415 can be tracked NOW for your location showing map with azimuth and elevation plus other details from your city location.

Track the satellite on the map from your city or location and see movement details for azimuth, elevation, latitude, longitude, range, height, and movement on the map or in text.







IsCatalogInMostPopularTable: catalog: 45691, numindb: 5
Update: records affected: 1



GetName: 45691 STARLINK-1415

Hit Count: updated at: Fri, 10 Jul 2020 17:04:25 GMT